TIME,DELAY(SENSOR),PRES,T(CTD),SAL,OXYGEN,RAWTEMP,T(OPTODE),TCPHASE,FLUOR,BETA(BETA700),BETA(BETA412),BETA(BETA440),CDOM,C(CSC),ED(ED411.90),ED(ED443.80),ED(ED489.40),ED(ED554.70),LU(LU412.20),LU(LU443.80),LU(LU489.40),LU(LU555.00),COMP,TILTX,TILTX(TILTY),CHECK
1342106999,5803,497.5899963378906000,16.4671001434326170,36.2692985534668000,219.8916015625000000,220.2214050292968800,16.4667606353759770,32.9617309570312500,50,107,99,82,68,15426,2147480329,2147772681,2147562450,2147800704,2147312009,2147474066,2147716717,2148247387,1609,7,13,62705
1342107126,5802,486.7399902343750000,16.6436004638671880,36.3042984008789060,222.8887939453125000,214.6604003906250000,16.6358509063720700,32.7268714904785160,50,106,100,82,67,15425,2147475419,2147772836,2147566153,2147800493,2147316150,2147472896,2147713618,2148246217,1228,7,13,42868
1342107255,5804,475.7600097656250000,16.7852001190185550,36.3324012756347660,224.5301971435547000,209.8690032958984400,16.7815494537353500,32.5753898620605500,50,107,99,82,67,15428,2147479040,2147768923,2147560822,2147801682,2147314450,2147472932,2147715776,2148246235,1480,7,13,501
1342107382,5804,464.7999877929687500,16.8932991027832030,36.3548011779785160,225.7413024902343800,206.3869018554687500,16.8874397277832030,32.4649696350097660,50,105,99,84,68,15429,2147480475,2147768512,2147562221,2147802633,2147314806,2147478555,2147712256,2148246884,1954,7,13,7220
1342107509,5804,453.4700012207031000,16.9932003021240230,36.3744010925293000,227.7171936035156200,203.0704956054687500,16.9883003234863280,32.3186607360839840,50,106,100,82,67,15425,2147483318,2147771757,2147559954,2147799478,2147309878,2147477915,2147711286,2148246793,2014,7,13,42847
1342107627,5804,442.4700012207031000,17.0990009307861330,36.3949012756347660,229.3345947265625000,199.3070068359375000,17.1027603149414060,32.1856918334960940,49,107,99,81,67,15426,2147482422,2147770624,2147562194,2147801097,2147311881,2147476864,2147710966,2148246656,2473,7,13,4868
1342107742,5804,431.4700012207031000,17.1854991912841800,36.4109992980957000,230.6896972656250000,196.7021942138672000,17.1819992065429700,32.0824813842773440,50,107,99,83,68,15425,2147477677,2147768850,2147560045,2147799387,2147310838,2147477641,2147710884,2148242596,3100,7,13,37824
1342107857,5803,420.3099975585937500,17.2667999267578120,36.4267005920410160,230.7277984619140600,194.0043029785156200,17.2640590667724600,32.0438690185546900,50,106,101,84,67,15427,2147483465,2147769901,2147560749,2147798665,2147311990,2147476333,2147708800,2148245750,3577,7,13,54917
1342107975,5806,409.0299987792969000,17.3435001373291000,36.4420013427734400,232.3713073730468800,191.5249023437500000,17.3394908905029300,31.9287891387939450,49,107,99,85,68,15427,2147486692,2147767533,2147559396,2147794733,2147313325,2147477366,2147712868,2148247332,567,7,13,25501
1342108090,5806,398.3299865722656000,17.4097995758056640,36.4542999267578100,233.6042022705078000,189.2328948974609400,17.4092292785644530,31.8370494842529300,50,107,98,83,66,15424,2147484041,2147769920,2147562057,2147794907,2147316160,2147475958,2147713965,2148243008,715,7,12,55090
1342108219,5805,386.8900146484375000,17.4897003173828120,36.4701004028320300,234.8433990478515600,186.6555023193359400,17.4876499176025400,31.7420501708984380,49,106,99,84,66,15424,2147487296,2147767570,2147562560,2147795465,2147310025,2147480073,2147712813,2148241974,1112,7,13,51304
1342108346,5803,376.1600036621094000,17.5386009216308600,36.4771003723144500,234.6504974365234400,185.1354064941406200,17.5339107513427730,31.7308692932128900,50,109,101,84,67,15425,2147487616,2147765915,2147563648,2147794605,2147306596,2147477403,2147717129,2148243867,1023,7,13,23091
1342108473,5803,365.9800109863281000,17.6014995574951170,36.4878997802734400,234.2149047851562500,183.0137939453125000,17.5984706878662100,31.7229099273681640,50,108,99,83,67,15423,2147485110,2147767030,2147564955,2147795904,2147312256,2147477632,2147714432,2148243428,1281,7,13,63956
1342108627,5803,354.3699951171875000,17.6956005096435550,36.5047988891601560,235.4580993652343800,179.9584045410156200,17.6914596557617200,31.6214809417724600,50,108,100,84,66,15423,2147482276,2147768402,2147565860,2147794852,2147312512,2147478226,2147717714,2148243218,1772,7,13,35079
1342108778,5804,343.6700134277344000,17.7780990600585940,36.5201988220214840,236.0984039306640600,177.1929016113281200,17.7756404876709000,31.5532207489013670,50,107,99,83,66,15424,2147485001,2147771501,2147568868,2147795904,2147305819,2147478628,2147713828,2148240960,1911,7,13,38259
1342108924,5805,331.7900085449219000,17.8778991699218750,36.5365982055664060,237.2530975341797000,173.9855041503906200,17.8732795715332030,31.4549102783203120,50,108,98,84,65,15424,2147486976,2147771337,2147572909,2147794843,2147309714,2147479844,2147719442,2148241682,2274,7,13,46353
1342109039,5802,321.1300048828125000,17.9505996704101560,36.5489997863769500,237.8648071289062500,171.6181030273437500,17.9453601837158200,31.3937492370605470,50,109,100,85,66,15423,2147486601,2147772580,2147579684,2147796635,2147311908,2147478912,2147721389,2148243638,2302,7,12,28077
1342109156,5804,310.2399902343750000,18.0161991119384770,36.5583992004394500,237.7017059326172000,169.4019927978515600,18.0128402709960940,31.3719692230224600,50,108,99,84,68,15420,2147488877,2147775067,2147582902,2147796882,2147315538,2147484269,2147725705,2148241197,2458,7,12,38022
1342109271,5802,299.5100097656250000,18.0659008026123050,36.5648994445800800,237.3547973632812500,167.7068023681640600,18.0644607543945300,31.3657207489013670,50,109,99,84,67,15420,2147489179,2147773312,2147592722,2147792676,2147309458,2147485714,2147733604,2148239844,3093,7,13,49579
1342109386,5802,288.6000061035156000,18.1096000671386720,36.5688018798828100,236.6378021240234400,166.2384033203125000,18.1091804504394530,31.3798103332519530,50,109,100,84,67,15418,2147490971,2147778752,2147605257,2147793051,2147301229,2147488109,2147742820,2148244068,3428,7,13,62324
1342109503,5801,277.4800109863281000,18.1727008819580080,36.5749015808105500,235.6860046386718800,164.1977996826172000,18.1713409423828120,31.3980293273925780,50,109,100,85,66,15417,2147486784,2147785810,2147619501,2147797165,2147314980,2147489188,2147747922,2148243757,124,7,12,22844
1342109618,5803,266.4599914550781000,18.2264995574951170,36.5808982849121100,234.9308013916015600,161.9795074462890600,18.2389106750488280,31.4044799804687500,50,110,100,85,67,15415,2147490285,2147788690,2147643328,2147792896,2147309942,2147497581,2147762706,2148245001,164,7,12,57873
1342109733,5803,255.3399963378906200,18.3008995056152340,36.5822982788085940,232.9709930419922000,159.7084960937500000,18.3080997467041000,31.4686794281005860,50,111,101,85,67,15410,2147490715,2147800612,2147676406,2147793325,2147307090,2147503661,2147781668,2148243648,541,7,12,63625
1342109851,5802,243.7700042724609400,18.4127006530761720,36.5948982238769500,231.6201934814453000,156.1591949462890600,18.4162502288818360,31.4864997863769530,50,111,100,85,67,15412,2147491090,2147816393,2147721508,2147792356,2147311213,2147511881,2147809636,2148245421,796,6,12,46476
1342109954,5801,233.1900024414062500,18.5013999938964840,36.6002998352050800,230.3047943115234400,153.4277038574218800,18.4995002746582030,31.5145492553710940,50,111,99,86,66,15409,2147494363,2147839323,2147789714,2147792384,2147308964,2147528630,2147846144,2148248896,1202,7,12,31336
1342110069,5803,221.2299957275390600,18.5942001342773440,36.5937995910644500,229.9172058105468800,150.4523010253906200,18.5902004241943360,31.4934406280517580,50,112,101,85,67,15411,2147497682,2147877531,2147882340,2147792256,2147309924,2147551725,2147902555,2148251245,1924,7,13,27055
1342110186,5804,210.7100067138672000,18.7665996551513670,36.6016998291015600,230.3020935058593800,144.5155944824218800,18.7712192535400400,31.3952903747558600,50,114,100,86,66,15408,2147502994,2147918866,2147983296,2147793581,2147313865,2147584173,2147961353,2148255442,2664,7,13,10574
1342110349,5802,199.7400054931640600,18.8824005126953120,36.5768013000488300,238.8139953613281200,141.1208953857422000,18.8747692108154300,30.9422492980957030,50,111,100,86,66,15410,2147512210,2147982482,2148135341,2147792155,2147319424,2147620836,2148047524,2148260114,3446,7,13,12069
1342110404,5801,196.4600067138672000,18.9246997833251950,36.5750999450683600,240.2162017822265600,139.6248931884765600,18.9204101562500000,30.8573207855224600,50,112,100,85,66,15409,2147517385,2148007140,2148189686,2147793627,2147314715,2147634377,2148078957,2148258368,3576,7,13,35834
1342110481,5803,192.7400054931640600,18.9925994873046880,36.5745010375976560,242.8256072998047000,137.4311981201172000,18.9873409271240230,30.7078609466552730,51,112,101,85,65,15410,2147522550,2148037805,2148261440,2147793920,2147318665,2147661065,2148123318,2148264630,125,7,13,51502
1342110608,5804,189.2400054931640600,19.0401000976562500,36.5772018432617200,244.4295043945312500,135.9481964111328000,19.0325908660888670,30.6149406433105470,51,112,100,85,66,15405,2147530349,2148067602,2148331657,2147793609,2147326646,2147675382,2148161078,2148267373,3239,7,13,8815
1342110779,5804,184.8500061035156200,19.1215000152587900,36.5794982910156250,246.4031982421875000,133.1235961914062500,19.1187992095947270,30.4886608123779300,51,112,100,86,64,15408,2147538989,2148110720,2148432329,2147790427,2147333979,2147705362,2148218587,2148270729,2489,7,13,41279
1342110870,5804,180.8600006103515600,19.1462993621826170,36.5816993713378900,248.5153045654297000,132.3730010986328000,19.1417198181152340,30.3841991424560550,50,113,100,85,64,15412,2147545179,2148163739,2148547200,2147790957,2147339547,2147742573,2148286262,2148268928,2588,7,12,500
1342110961,5802,176.7899932861328000,19.2143993377685550,36.5901985168457000,250.0917968750000000,130.2480926513672000,19.2065906524658200,30.2865695953369140,51,116,101,86,65,15408,2147567149,2148218294,2148673298,2147791012,2147341906,2147781888,2148363858,2148274477,2336,7,12,5199
1342111052,5752,172.7799987792968800,19.2465000152587900,36.5947990417480500,251.3890075683593800,129.1651000976562500,19.2396602630615230,30.2152404785156250,51,111,101,86,64,15407,2147579702,2148285120,2148815881,2147793526,2147355483,2147826386,2148451748,2148278683,1718,7,13,31872
1342111145,5800,168.6699981689453000,19.2462005615234380,36.5822982788085940,253.4842071533203000,128.8262023925781200,19.2500095367431640,30.1194801330566400,53,113,100,85,64,15403,2147598637,2148359926,2148980662,2147792009,2147354715,2147882322,2148550765,2148288091,1377,7,13,39967
1342111236,5801,164.6999969482422000,19.3010997772216800,36.5917015075683600,255.0966949462890600,127.3049011230468800,19.2964591979980470,30.0297393798828120,53,113,101,87,63,15400,2147621851,2148446381,2149161426,2147793252,2147374601,2147943634,2148663570,2148290916,1009,7,13,43397
1342111327,5805,160.5599975585937500,19.2926006317138670,36.5862998962402340,256.5484924316406000,127.4829025268554700,19.2910308837890620,29.9696807861328120,56,114,101,86,64,15404,2147649325,2148550208,2149378806,2147793014,2147388205,2148012982,2148788224,2148301165,511,7,12,18495
1342111406,5803,156.8000030517578000,19.3090000152587900,36.5886001586914060,257.0031127929687500,127.0193023681640600,19.3051891326904300,29.9444007873535160,57,119,101,85,63,15399,2147677878,2148652452,2149590930,2147799424,2147410011,2148084608,2148914185,2148306889,90,7,12,9062
1342111476,5803,153.3600006103515600,19.3383998870849600,36.5946998596191400,257.6271057128906000,126.1145019531250000,19.3328208923339840,29.9060096740722660,58,114,102,85,64,15400,2147704347,2148750473,2149802861,2147797558,2147415497,2148148653,2149040731,2148315465,3342,7,12,43644
1342111555,5804,149.4100036621093800,19.3586006164550780,36.5984992980957000,258.3931884765625000,125.4178009033203100,19.3540992736816400,29.8644695281982420,59,115,102,86,65,15398,2147745097,2148873115,2150077394,2147800000,2147443547,2148235318,2149204342,2148325897,3261,7,13,17132
1342111634,5801,145.5299987792968800,19.3631000518798830,36.5985984802246100,258.8291931152344000,125.1689987182617200,19.3617000579834000,29.8426094055175780,63,116,100,86,63,15396,2147796022,2149045586,2150438820,2147803538,2147469650,2148349376,2149410870,2148338404,3370,7,13,58356
1342111713,5803,141.8099975585937500,19.3642997741699220,36.5961990356445300,258.9771118164062500,125.1449966430664000,19.3624305725097660,29.8361701965332030,68,116,102,85,64,15386,2147848155,2149195337,2150731739,2147805924,2147495990,2148442386,2149571218,2148347629,3337,7,13,32549
1342111807,5801,137.6900024414062500,19.3715991973876950,36.5956993103027340,258.8331909179687500,124.9169006347656200,19.3694000244140620,29.8392295837402340,72,120,101,86,64,15385,2147920667,2149422016,2151177892,2147812324,2147538029,2148574299,2149805248,2148364013,3147,7,12,5410
1342111898,5802,134.0500030517578000,19.3770999908447270,36.5946998596191400,258.8602905273437500,124.7277984619140600,19.3751792907714840,29.8357200622558600,78,123,102,87,64,15372,2148004662,2149646656,2151614555,2147817334,2147573750,2148708699,2150032438,2148378971,3353,7,13,22035
1342112013,5803,129.7599945068359400,19.3815994262695300,36.5929985046386700,259.3666992187500000,124.5963973999023400,19.3791904449462900,29.8124904632568360,90,129,102,88,62,15364,2148158902,2150051648,2152363556,2147832064,2147641216,2148902290,2150380269,2148401289,3142,7,13,43712
1342112115,5804,125.1500015258789000,19.3813991546630860,36.5889015197753900,259.3676147460937500,124.5850982666015600,19.3795299530029300,29.8124103546142580,102,131,103,88,63,15345,2148378578,2150623012,2153374226,2147842843,2147729700,2149145453,2150800109,2148434459,2921,7,12,772
1342112182,5805,121.5299987792968800,19.3994998931884770,36.5791015625000000,259.4620971679687500,124.0655975341796900,19.3953990936279300,29.8016700744628900,109,135,103,87,64,15331,2148597385,2151182253,2154327817,2147862016,2147803254,2149366482,2151179419,2148467510,2963,7,12,63726
1342112261,5802,117.2200012207031200,19.3801002502441400,36.5815010070800800,259.5722961425781000,124.6013031005859400,19.3790397644042970,29.8039302825927730,121,139,103,88,64,15317,2148926710,2151960868,2155623881,2147889892,2147930048,2149649645,2151664530,2148510528,3271,7,13,42227
1342112328,5806,113.5100021362304700,19.4195003509521500,36.5867996215820300,260.2294921875000000,123.5513992309570300,19.4111099243164060,29.7626094818115230,142,143,104,89,65,15287,2149305289,2152873426,2157103908,2147920996,2148056036,2149955611,2152181430,2148558454,43,7,12,18528
1342112410,5804,109.1100006103515600,19.4251995086669920,36.5808982849121100,259.4638061523437500,123.1596984863281200,19.4230804443359380,29.7899894714355470,157,153,105,90,63,15254,2149948800,2154382454,2159433956,2147973010,2148272054,2150436571,2152995547,2148639012,555,7,13,12531
1342112477,5804,105.5299987792968800,19.4515991210937500,36.5829010009765600,260.2918090820312500,122.1664962768554700,19.4534206390380860,29.7423400878906250,171,142,105,91,64,15251,2150678528,2156051492,2161835008,2148031049,2148509357,2150941467,2153795163,2148722779,780,7,12,36746
1342112556,5800,101.5400009155273400,19.5009994506835940,36.5844993591308600,263.8194885253906000,120.7240982055664000,19.4974899291992200,29.5766906738281250,171,147,104,90,67,15218,2151856484,2158643940,2165344731,2148111945,2148850112,2151659337,2154869019,2148837668,720,7,12,33796
1342112623,5804,98.3099975585937500,19.5615005493164060,36.5890007019043000,266.0769042968750000,118.6183013916015600,19.5618495941162100,29.4567108154296880,169,144,106,90,65,15193,2153118052,2161300882,2168667026,2148200292,2149217828,2152442267,2155973284,2148957668,462,7,13,19998
1342112678,5803,95.6600036621093800,19.6102008819580080,36.5905990600585940,269.0429077148437500,117.3478012084961000,19.6006793975830080,29.3200798034667970,122,139,105,90,66,15231,2154301248,2163552457,2171292461,2148284699,2149610560,2153270610,2157062409,2149076352,359,7,12,4222
1342112736,5806,92.8799972534179700,19.6609992980957030,36.5906982421875000,272.0020141601562500,115.2442016601562500,19.6649894714355470,29.1745491027832030,107,138,106,91,64,15233,2155861732,2166353828,2174597065,2148404388,2150213988,2154520173,2158639579,2149230198,529,7,12,51017
1342112791,5806,90.2500000000000000,19.6989994049072270,36.5912017822265600,272.9285888671875000,114.2864990234375000,19.6942691802978500,29.1255702972412100,101,135,104,89,64,15222,2157494372,2169201353,2177811108,2148535926,2150845997,2155798555,2160198793,2149389796,671,7,13,31151
1342112846,5805,87.7699966430664000,19.7191009521484380,36.5915985107421900,273.2734985351562500,113.5104980468750000,19.7179908752441400,29.1021194458007800,100,139,106,90,63,15233,2159299611,2172143305,2181024347,2148683748,2151560000,2157229467,2161874358,2149565330,621,7,13,2691
1342112901,5804,85.3300018310546900,19.7695999145507800,36.5928001403808600,274.3428039550781000,111.9738998413086000,19.7649803161621100,29.0403900146484380,95,137,106,92,64,15220,2161432256,2175598939,2184785581,2148868900,2152393700,2158762368,2163621010,2149739995,289,7,13,46969
1342112956,5806,82.9400024414062500,19.7759990692138670,36.5932998657226560,275.4179077148437500,111.5916976928711000,19.7766704559326170,28.9933204650878900,93,136,105,89,62,15232,2163884690,2179269769,2188636544,2149071835,2153421805,2160608466,2165647021,2149957275,405,7,13,14132
1342113011,5804,80.4899978637695300,19.8304996490478500,36.5928993225097660,276.1347961425781000,110.1360015869140600,19.8211994171142580,28.9467792510986330,88,139,105,89,64,15219,2166824896,2183517083,2192919670,2149322148,2154664045,2162756443,2167974710,2150202358,385,7,13,21436
1342113069,5802,77.9199981689453100,19.8913002014160160,36.5922012329101560,277.1469116210937500,107.8369979858398400,19.8915290832519530,28.8783607482910160,86,135,105,91,63,15227,2170204059,2188327058,2197892397,2149651593,2156063798,2165101641,2170462070,2150472164,149,7,13,7513
1342113124,5804,75.5999984741211000,19.9825000762939450,36.5936012268066400,278.1469116210937500,105.1446990966796900,19.9739093780517580,28.8058109283447270,85,134,108,89,62,15214,2173320621,2192501156,2202032365,2149969005,2157421101,2167329106,2172715675,2150721965,3397,7,13,10013
1342113179,5802,73.3399963378906200,20.0461006164550780,36.5948982238769500,280.1929016113281000,103.1286010742187500,20.0356101989746100,28.7017192840576170,83,138,108,92,62,15204,2177062555,2197624566,2207352896,2150366464,2159102637,2170073792,2175666240,2151052553,3204,7,13,40655
1342113234,5800,71.1699981689453100,20.1355991363525400,36.5956993103027340,281.6849060058594000,100.1414031982421900,20.1270694732666000,28.6072692871093750,83,137,109,92,61,15191,2180790738,2202585700,2212508544,2150828781,2160819099,2172689472,2178269156,2151362084,3175,8,13,49723
1342113289,5802,69.3199996948242200,20.2383995056152340,36.5957984924316400,282.3179016113281000,97.9013595581054700,20.1956691741943360,28.5551605224609380,80,140,106,91,63,15177,2184055286,2206727232,2216609298,2151218240,2162421028,2175117211,2180695606,2151643611,3318,7,13,54477
1342113344,5800,67.8199996948242200,20.2807998657226560,36.5980987548828100,283.1158142089844000,95.4826965332031200,20.2697505950927730,28.4946994781494140,78,139,109,91,61,15194,2187464585,2211192237,2221175195,2151632987,2164088329,2177651867,2183229348,2151956790,3571,7,13,6294
1342113422,5802,65.6299972534179700,20.3987007141113280,36.5998992919921900,283.9486083984375000,91.6448669433593800,20.3873500823974600,28.4156208038330080,76,141,108,97,62,15190,2193003922,2217471881,2226723492,2152265810,2167023140,2181781412,2187003602,2152410642,3229,7,13,11027
1342113477,5803,63.6100006103515600,20.5457000732421880,36.5998992919921900,284.1690979003906000,87.0226364135742200,20.5290508270263670,28.3498706817626950,74,139,108,93,59,15185,2199950957,2226154176,2235574985,2153177956,2170218733,2186166756,2191094774,2152941632,2770,7,13,20642
1342113532,5805,61.7900009155273440,20.6079998016357420,36.6025009155273440,284.7810058593750000,84.6575698852539000,20.6015892028808600,28.2975101470947270,73,142,108,93,62,15183,2205745728,2232395428,2240815533,2153808832,2173710884,2190842880,2195276608,2153448192,2777,7,13,33004
1342113587,5799,60.0999984741210940,20.6667003631591800,36.6025009155273440,283.6340942382812500,82.6508865356445300,20.6631507873535160,28.3156108856201170,71,140,109,94,62,15179,2211936466,2238998939,2246426825,2154551661,2177127149,2195255405,2198998162,2153901339,3042,7,13,61782
1342113654,5804,58.2000007629394500,20.8229007720947270,36.6036987304687500,284.0208129882812500,77.6310195922851600,20.8172092437744140,28.2390403747558600,68,142,108,93,59,15186,2221740022,2250541760,2257741604,2155865508,2182512722,2202378587,2205460086,2154746614,2966,8,13,44817
1342113733,5804,55.8199996948242200,20.9720993041992200,36.5904998779296900,283.6438903808594000,73.4400329589843800,20.9459095001220700,28.2014408111572270,67,141,109,91,61,15182,2224565458,2250941632,2255804306,2156400475,2185842541,2205141129,2206200923,2154969664,294,8,13,18794
1342113875,5805,51.2700004577636700,21.2493991851806640,36.5900001525878900,281.1633911132812500,62.8217391967773440,21.2722892761230470,28.1638698577880860,64,142,107,93,58,15180,2253773458,2283695113,2288448448,2161252745,2204803364,2228686628,2227244150,2157968219,1116,6,12,40963
1342113910,5803,50.1300010681152340,21.3479995727539060,36.5819015502929700,281.0999145507812500,60.5614089965820300,21.3418292999267580,28.1383705139160160,64,140,109,92,58,15171,2257653952,2287444388,2291753051,2162203995,2208400850,2232882889,2230281984,2158398454,633,7,12,24383
1342113968,5804,48.7200012207031250,21.4745006561279300,36.5744018554687500,280.7521057128906000,56.4477195739746100,21.4684391021728500,28.1009197235107420,61,139,108,93,58,15187,2243131785,2265870363,2266305499,2159693467,2203111899,2224147264,2220205558,2156901997,34,7,12,16843
1342114072,5803,46.8499984741210940,21.6079006195068360,36.5597991943359400,280.0975952148437500,51.4582481384277340,21.6221008300781250,28.0644493103027340,60,142,110,93,57,15180,2278831040,2307327570,2309268580,2166028105,2227273435,2253456530,2246034651,2160575771,2467,8,12,54516
1342114153,5805,44.5800018310546900,21.8180999755859380,36.5475006103515600,279.3197021484375000,46.0334892272949200,21.7893104553222660,28.0272693634033200,58,141,108,92,57,15196,2291754249,2318906669,2319635081,2169042304,2240766281,2267001590,2255195949,2161988416,2615,8,12,20457
1342114222,5803,42.6399993896484400,22.0760993957519530,36.5396003723144500,278.2594909667969000,37.4132194519043000,22.0552806854248050,27.9619102478027340,57,142,108,95,61,15178,2301668745,2328222811,2328362386,2171599524,2250977883,2277307300,2262282422,2163090066,3179,7,12,16091
1342114303,5804,40.7200012207031250,22.2299995422363280,36.5378990173339840,277.8543090820312500,33.1846694946289060,22.1858806610107420,27.9256191253662100,57,138,107,91,56,15182,2311493796,2336913938,2336289801,2174433115,2262571026,2289678080,2272071323,2164727094,3331,8,13,18098
1342114383,5803,38.7900009155273440,22.4029998779296880,36.5256004333496100,276.5773010253906000,26.0510196685791000,22.4064102172851560,27.8872108459472660,56,141,108,92,55,15183,2327815405,2354099044,2354740425,2180329408,2276523684,2303598400,2282301193,2167033380,218,6,13,16656
1342114584,5806,36.9399986267089840,23.0554008483886720,36.4738006591796900,268.7616882324219000,4.9717688560485840,23.0596103668212900,27.9326095581054700,56,141,108,92,61,15176,2330886784,2355066304,2355120786,2182248054,2280521389,2306855570,2284972736,2167659931,48,6,12,18762
1342114701,5802,34.7900009155273440,23.1357994079589840,36.4673004150390600,267.6044006347656000,2.2181329727172850,23.1451206207275400,27.9446296691894530,56,137,107,93,59,15181,2259660955,2267164918,2260456182,2166958235,2227441810,2236285165,2218893696,2158552612,3093,7,12,29038